User: anonymous
Location: Slidell
(30.2789°N, 89.7378°W)
Time: 19:30:06
(UTC-05:00)
Language:

Cosmos 2360 Rocket - Orbit

View from above orbital plane
View from above orbital plane
View from above satellite
View from above satellite

Ground track
Ground track

The orbit data is extracted from the following two-line orbital elements,

1 25407U 98045B   14292.45037484 -.00000258  00000-0 -10735-3 0  5966
2 25407 071.0114 283.3778 0010034 255.5663 259.7028 14.15677078838651
Epoch (UTC): 19 October 2014 10:48:32
Eccentricity: 0.0010034
inclination: 71.0114°
perigee height: 833 km
apogee height: 847 km
right ascension of ascending node: 283.3778°
argument of perigee: 255.5663°
revolutions per day: 14.15677078
mean anomaly at epoch: 259.7028°
orbit number at epoch: 83865

The dashed part of the orbit path shows where the satellite is in the earth's shadow,  

DLR